This is the latest recevied weather packets stored in our database for station/object S51UL-6. If no packets are shown the sender has not sent any weather packets the latest 1 day(s).
| Time | Temp. | Humidity | Pressure | Rain* | Wind** | Luminosity | Snow |
|---|---|---|---|---|---|---|---|
| 1778011105 | 14.44° C | 68% | 1010.5 hPa | 0 mm | 0 m/s | - | - |
| 1778010806 | 14.44° C | 68% | 1010.5 hPa | 0 mm | 0 m/s | - | - |
| 1778010506 | 14.44° C | 68% | 1010.6 hPa | 0 mm | 0 m/s | - | - |
| 1778010206 | 14.44° C | 68% | 1010.5 hPa | 0 mm | 0.45 m/s, 158° | - | - |
| 1778009905 | 14.44° C | 68% | 1010.7 hPa | 0 mm | 0 m/s | - | - |
| 1778009606 | 15° C | 67% | 1010.8 hPa | 0 mm | 0 m/s | - | - |
| 1778009306 | 15° C | 67% | 1010.7 hPa | 0 mm | 0 m/s | - | - |
| 1778009006 | 15° C | 67% | 1010.8 hPa | 0 mm | 1.34 m/s, 135° | - | - |
| 1778008706 | 15.56° C | 67% | 1010.8 hPa | 0 mm | 2.24 m/s, 180° | - | - |
| 1778008407 | 15° C | 67% | 1010.8 hPa | 0 mm | 2.68 m/s, 158° | - | - |
| 1778008106 | 15.56° C | 67% | 1010.7 hPa | 0 mm | 2.24 m/s, 158° | - | - |
| 1778007806 | 15° C | 67% | 1010.6 hPa | 0 mm | 1.34 m/s, 158° | - | - |
| 1778007506 | 15° C | 66% | 1010.8 hPa | 0 mm | 1.79 m/s, 203° | - | - |
| 1778007207 | 15° C | 65% | 1010.8 hPa | 0 mm | 1.34 m/s, 135° | - | - |
| 1778006906 | 15.56° C | 65% | 1010.7 hPa | 0 mm | 1.34 m/s, 135° | - | - |
| 1778006606 | 15.56° C | 64% | 1010.7 hPa | 0 mm | 0.45 m/s, 135° | - | - |
| 1778006306 | 15.56° C | 63% | 1010.8 hPa | 0 mm | 0 m/s | - | - |
| 1778006006 | 15.56° C | 63% | 1010.8 hPa | 0 mm | 0.89 m/s, 158° | - | - |
| 1778005706 | 15.56° C | 63% | 1010.7 hPa | 0 mm | 2.24 m/s, 158° | - | - |
| 1778005406 | 16.11° C | 63% | 1010.4 hPa | 0 mm | 2.24 m/s, 180° | - | - |
| 1778005106 | 16.11° C | 63% | 1010.7 hPa | 0 mm | 1.79 m/s, 158° | - | - |
| 1778004507 | 16.11° C | 62% | 1010.6 hPa | 0 mm | 2.68 m/s, 135° | - | - |
| 1778003907 | 16.11° C | 62% | 1010.8 hPa | 0 mm | 3.58 m/s, 158° | - | - |
| 1778003607 | 16.67° C | 61% | 1010.8 hPa | 0 mm | 3.13 m/s, 158° | - | - |
| 1778003307 | 16.67° C | 61% | 1010.9 hPa | 0 mm | 1.79 m/s, 158° | - | - |
* Rain latest hour (hover to see other rain measurements)
** Current wind speed in m/s (hover to see current wind gust speed)